LiveATC.Net - Listen to live air traffic control over the Internet!


ICAO: ESGG  IATA: GOT   Airport: Landvetter Airport
City: Gothenburg
Country: Sweden   Continent: Europe
ESGG METAR Weather: ESGG 271020Z 17012KT 3000 DZ VV003 03/03 Q1002 R21/29//95
ESGG Flight Activity (FlightAware)

ESGG Gnd/Twr/Control
Feed Status: DOWN
Last heard on: 2020-01-19 09:57:39 (8 days 1 hours 1 minutes ago)
Archive Access: ESGG Gnd/Twr/Control
FacilityFrequency
Emergency/Guard121.500
Goteborg Arrival120.125
Goteborg Control124.200
Goteborg Control124.675
Landvetter Ground121.900
Landvetter Tower118.605

NOTICE

Unauthorized use prohibited. See LiveATC.net Terms of Service


Airport/ARTCC Code
Frequency Search
(e.g., 124.400, 128.75)
Site-wide search
 


Browse Feeds
Top 50 Feeds
Coverage Map
Bad Weather Areas

LiveATC FAQ
Offer LiveATC feed
Contact LiveATC.net
Press Inquiries

LiveATC on iPhone
LiveATC on Android

Windows Phone
Windows 8/10

LiveATC Mobile
(Mobile browser)

ATC Audio Archives
Interesting Recordings

LiveATC Forums


Home Page
About LiveATC.net
Make a Donation
Terms of Use
Privacy Policy

Canadian Air Freqs

AIRMETs/SIGMETs

FAA Airport Status
Nat'l Airspace Status
Arrival Demand Charts


Server Software By:
Icecast.org
Liquidsoap